AFL769 UNNT-UNKL

Flight info

Callsign AFL769
Flight time N/A
Altitude 39000
Route OGATI1K OGATI A308 RISPA A366 KESED A309 ROTLI A300 RANET RANET2R
Aircraft A20N/M-V/N

Departure

Time 2026-05-06 16:09
Airport Novosibirsk Tolmachevo Airport (UNNT)

Arrival

Time N/A
Airport Krasnoyarsk International Airport (UNKL)
Time Latitude Longitude Altitude Speed Heading
2026-05-06 15:45 55.01064 82.66328 356 ft 0 kts 172°
2026-05-06 16:05 55.01049 82.66333 356 ft 7 kts 167°
2026-05-06 16:05 55.01028 82.66383 356 ft 5 kts 88°
2026-05-06 16:06 55.01039 82.66454 356 ft 6 kts 71°
2026-05-06 16:06 55.01057 82.66541 355 ft 7 kts 69°
2026-05-06 16:06 55.01083 82.66627 355 ft 8 kts 45°
2026-05-06 16:06 55.01102 82.66637 354 ft 1 kts 350°
2026-05-06 16:07 55.01121 82.66637 354 ft 4 kts
2026-05-06 16:07 55.01159 82.66640 353 ft 6 kts
2026-05-06 16:07 55.01212 82.66632 353 ft 8 kts 350°
2026-05-06 16:07 55.01263 82.66618 353 ft 4 kts 351°
2026-05-06 16:08 55.01340 82.66594 353 ft 15 kts 341°
2026-05-06 16:08 55.01373 82.66474 353 ft 7 kts 262°
2026-05-06 16:08 55.01372 82.66471 353 ft 0 kts 262°
2026-05-06 16:08 55.01372 82.66470 353 ft 0 kts 262°
2026-05-06 16:09 55.01340 82.66116 353 ft 74 kts 262°
2026-05-06 16:09 55.01213 82.64737 367 ft 150 kts 261°
2026-05-06 16:09 55.01039 82.62852 1027 ft 163 kts 262°
2026-05-06 16:09 55.00867 82.61004 1948 ft 154 kts 256°
2026-05-06 16:10 55.00280 82.59434 2498 ft 167 kts 216°
2026-05-06 16:10 54.99103 82.58890 2893 ft 195 kts 174°
2026-05-06 16:10 54.97818 82.59878 3498 ft 217 kts 141°
2026-05-06 16:10 54.96903 82.62048 3910 ft 237 kts 105°
2026-05-06 16:11 54.96713 82.64992 4624 ft 253 kts 94°
2026-05-06 16:11 54.96613 82.68172 5308 ft 271 kts 94°
2026-05-06 16:11 54.96492 82.71493 6188 ft 280 kts 94°
2026-05-06 16:11 54.96355 82.74847 7210 ft 283 kts 95°
2026-05-06 16:12 54.96208 82.78238 8203 ft 286 kts 95°
2026-05-06 16:12 54.96051 82.81706 9173 ft 290 kts 95°
2026-05-06 16:12 54.95887 82.85214 10120 ft 293 kts 95°
2026-05-06 16:12 54.95717 82.88806 10837 ft 305 kts 95°
2026-05-06 16:13 54.95538 82.92535 11490 ft 317 kts 95°
2026-05-06 16:13 54.95353 82.96371 12368 ft 321 kts 95°
2026-05-06 16:13 54.95166 83.00227 13238 ft 324 kts 95°
2026-05-06 16:13 54.94971 83.04179 14074 ft 329 kts 95°
2026-05-06 16:14 54.94773 83.08177 14888 ft 333 kts 95°
2026-05-06 16:14 54.94571 83.12218 15679 ft 337 kts 95°
2026-05-06 16:14 54.94364 83.16322 16453 ft 342 kts 95°
2026-05-06 16:14 54.94154 83.20448 17205 ft 346 kts 95°
2026-05-06 16:15 54.93938 83.24680 17943 ft 350 kts 95°
2026-05-06 16:15 54.93720 83.28912 18656 ft 355 kts 95°
2026-05-06 16:15 54.93499 83.33183 19355 ft 359 kts 95°
2026-05-06 16:15 54.93271 83.37542 20046 ft 363 kts 95°
2026-05-06 16:16 54.93041 83.41928 20706 ft 367 kts 95°
2026-05-06 16:16 54.92807 83.46339 21352 ft 371 kts 95°
2026-05-06 16:16 54.92568 83.50819 21981 ft 375 kts 95°
2026-05-06 16:16 54.92326 83.55329 22599 ft 379 kts 95°
2026-05-06 16:17 54.92077 83.59938 23200 ft 383 kts 95°
2026-05-06 16:17 54.91931 83.64534 23753 ft 387 kts 85°
2026-05-06 16:17 54.92572 83.69142 24297 ft 391 kts 69°
2026-05-06 16:17 54.93602 83.73516 24890 ft 393 kts 66°
2026-05-06 16:18 54.94698 83.77969 25435 ft 397 kts 67°
2026-05-06 16:18 54.95755 83.82398 25952 ft 401 kts 68°
2026-05-06 16:18 54.96801 83.86948 26472 ft 404 kts 68°
2026-05-06 16:18 54.97827 83.91528 26973 ft 407 kts 68°
2026-05-06 16:19 54.98847 83.96169 27452 ft 410 kts 69°
2026-05-06 16:19 54.99864 84.00846 27918 ft 413 kts 69°
2026-05-06 16:19 55.00874 84.05529 28388 ft 416 kts 69°
2026-05-06 16:19 55.01899 84.10313 28840 ft 419 kts 69°
2026-05-06 16:20 55.02916 84.15070 29285 ft 421 kts 69°
2026-05-06 16:20 55.03942 84.19888 29712 ft 424 kts 69°
2026-05-06 16:20 55.04979 84.24773 30120 ft 427 kts 69°
2026-05-06 16:20 55.06000 84.29597 30509 ft 430 kts 69°
2026-05-06 16:21 55.07047 84.34558 30889 ft 433 kts 69°
2026-05-06 16:21 55.08099 84.39554 31272 ft 436 kts 69°
2026-05-06 16:21 55.09145 84.44527 31646 ft 438 kts 69°
2026-05-06 16:21 55.10192 84.49525 32002 ft 440 kts 69°
2026-05-06 16:22 55.11245 84.54565 32426 ft 440 kts 69°
2026-05-06 16:22 55.12296 84.59606 32886 ft 439 kts 69°
2026-05-06 16:22 55.13328 84.64566 33328 ft 438 kts 69°
2026-05-06 16:22 55.14370 84.69595 33740 ft 437 kts 70°
2026-05-06 16:23 55.15418 84.74677 34129 ft 437 kts 69°
2026-05-06 16:23 55.16447 84.79672 34510 ft 436 kts 70°
2026-05-06 16:23 55.17473 84.84658 34889 ft 435 kts 70°
2026-05-06 16:23 55.18494 84.89636 35235 ft 435 kts 70°
2026-05-06 16:24 55.19509 84.94592 35575 ft 434 kts 70°
2026-05-06 16:24 55.20524 84.99564 35910 ft 434 kts 69°
2026-05-06 16:24 55.21537 85.04546 36234 ft 433 kts 69°
2026-05-06 16:24 55.22540 85.09496 36553 ft 432 kts 69°
2026-05-06 16:25 55.23544 85.14452 36849 ft 431 kts 69°
2026-05-06 16:25 55.24542 85.19387 37154 ft 430 kts 69°
2026-05-06 16:25 55.25533 85.24295 37422 ft 430 kts 68°
2026-05-06 16:25 55.26527 85.29221 37640 ft 430 kts 68°
2026-05-06 16:26 55.27535 85.34223 37825 ft 432 kts 68°
2026-05-06 16:26 55.28525 85.39163 37997 ft 433 kts 68°
2026-05-06 16:26 55.29521 85.44147 38169 ft 435 kts 68°
2026-05-06 16:26 55.30527 85.49185 38347 ft 436 kts 69°
2026-05-06 16:27 55.31533 85.54238 38523 ft 437 kts 69°
2026-05-06 16:27 55.32526 85.59248 38684 ft 438 kts 68°
2026-05-06 16:27 55.33520 85.64269 38837 ft 439 kts 69°
2026-05-06 16:27 55.34520 85.69348 38884 ft 440 kts 69°
2026-05-06 16:28 55.36515 85.79524 38899 ft 441 kts 69°
2026-05-06 16:28 55.38508 85.89734 38901 ft 441 kts 69°
2026-05-06 16:29 55.40480 85.99880 38902 ft 440 kts 69°
2026-05-06 16:29 55.42455 86.10097 38901 ft 440 kts 69°
2026-05-06 16:30 55.44091 86.18591 38901 ft 441 kts 69°
2026-05-06 16:30 55.46386 86.30579 38902 ft 441 kts 69°
2026-05-06 16:31 55.48338 86.40829 38902 ft 440 kts 69°
2026-05-06 16:31 55.50280 86.51083 38901 ft 440 kts 69°
2026-05-06 16:32 55.52206 86.61306 38902 ft 440 kts 69°
2026-05-06 16:32 55.54131 86.71600 38902 ft 441 kts 70°
2026-05-06 16:33 55.56035 86.81857 38903 ft 441 kts 70°
2026-05-06 16:34 55.58889 86.97320 38902 ft 439 kts 70°
2026-05-06 16:34 55.60759 87.07501 38903 ft 436 kts 70°
2026-05-06 16:35 55.62624 87.17711 38901 ft 433 kts 69°
2026-05-06 16:35 55.64458 87.27788 38901 ft 433 kts 70°
2026-05-06 16:36 55.66294 87.37944 38901 ft 433 kts 69°
2026-05-06 16:36 55.68124 87.48109 38901 ft 433 kts 70°
2026-05-06 16:37 55.69936 87.58257 38902 ft 433 kts 69°
2026-05-06 16:37 55.71746 87.68431 38899 ft 433 kts 70°
2026-05-06 16:38 55.73541 87.78619 38902 ft 434 kts 70°
2026-05-06 16:38 55.75338 87.88856 38902 ft 433 kts 70°
2026-05-06 16:39 55.77126 87.99081 38902 ft 433 kts 70°
2026-05-06 16:39 55.78010 88.04153 38758 ft 434 kts 70°
2026-05-06 16:39 55.78895 88.09252 38514 ft 429 kts 70°
2026-05-06 16:39 55.79768 88.14300 38057 ft 426 kts 70°
2026-05-06 16:40 55.80633 88.19311 37549 ft 424 kts 70°
2026-05-06 16:40 55.81505 88.24374 37032 ft 422 kts 70°
2026-05-06 16:40 55.82349 88.29289 36484 ft 421 kts 70°
2026-05-06 16:40 55.83218 88.34368 35868 ft 422 kts 70°
2026-05-06 16:41 55.84074 88.39381 35240 ft 422 kts 70°
2026-05-06 16:41 55.84925 88.44385 34596 ft 424 kts 70°
2026-05-06 16:41 55.85787 88.49467 33929 ft 425 kts 70°
2026-05-06 16:41 55.86628 88.54431 33278 ft 426 kts 70°
2026-05-06 16:42 55.87489 88.59514 32869 ft 424 kts 70°
2026-05-06 16:42 55.88340 88.64568 32619 ft 427 kts 70°
2026-05-06 16:42 55.89193 88.69664 32366 ft 428 kts 71°
2026-05-06 16:42 55.90042 88.74762 32115 ft 428 kts 71°
2026-05-06 16:43 55.90883 88.79813 31867 ft 429 kts 71°
2026-05-06 16:43 55.91728 88.84901 31606 ft 426 kts 71°
2026-05-06 16:43 55.92570 88.89989 31277 ft 423 kts 71°
2026-05-06 16:43 55.93403 88.95041 30890 ft 418 kts 71°
2026-05-06 16:44 55.94228 89.00049 30504 ft 412 kts 71°
2026-05-06 16:44 55.95069 89.04899 30195 ft 407 kts 69°
2026-05-06 16:44 55.96020 89.09595 29785 ft 404 kts 66°
2026-05-06 16:44 55.97012 89.14261 29426 ft 399 kts 66°
2026-05-06 16:45 55.97994 89.18843 29109 ft 398 kts 66°
2026-05-06 16:45 55.98986 89.23483 28760 ft 396 kts 66°
2026-05-06 16:45 55.99960 89.28059 28386 ft 393 kts 66°
2026-05-06 16:45 56.00915 89.32575 27998 ft 390 kts 66°
2026-05-06 16:46 56.01875 89.37116 27596 ft 388 kts 66°
2026-05-06 16:46 56.02814 89.41574 27198 ft 384 kts 66°
2026-05-06 16:46 56.03746 89.46012 26795 ft 382 kts 66°
2026-05-06 16:46 56.04676 89.50451 26382 ft 379 kts 67°
2026-05-06 16:47 56.05591 89.54825 25976 ft 376 kts 67°
2026-05-06 16:47 56.06497 89.59167 25572 ft 373 kts 67°
2026-05-06 16:47 56.07408 89.63545 25161 ft 370 kts 67°
2026-05-06 16:47 56.08292 89.67808 24759 ft 367 kts 68°
2026-05-06 16:48 56.09171 89.72068 24354 ft 364 kts 68°
2026-05-06 16:48 56.10049 89.76324 23951 ft 362 kts 68°
2026-05-06 16:48 56.10907 89.80450 23560 ft 359 kts 68°
2026-05-06 16:48 56.11800 89.84721 23155 ft 356 kts 68°
2026-05-06 16:49 56.12662 89.88870 22759 ft 354 kts 68°
2026-05-06 16:49 56.13508 89.92965 22369 ft 351 kts 68°
2026-05-06 16:49 56.14359 89.97105 21974 ft 349 kts 68°
2026-05-06 16:49 56.15196 90.01197 21585 ft 346 kts 68°
2026-05-06 16:50 56.16027 90.05274 21195 ft 344 kts 68°
2026-05-06 16:50 56.16850 90.09322 20815 ft 341 kts 68°
2026-05-06 16:50 56.17656 90.13288 20459 ft 338 kts 68°
2026-05-06 16:50 56.18191 90.15929 20228 ft 336 kts 68°
2026-05-06 16:51 56.19244 90.21137 19777 ft 332 kts 68°
2026-05-06 16:51 56.20029 90.25028 19441 ft 329 kts 68°
2026-05-06 16:51 56.20801 90.28864 19112 ft 326 kts 68°
2026-05-06 16:51 56.21561 90.32645 18787 ft 323 kts 68°
2026-05-06 16:52 56.22322 90.36446 18462 ft 320 kts 68°
2026-05-06 16:52 56.23071 90.40189 18143 ft 318 kts 68°
2026-05-06 16:52 56.23808 90.43881 17828 ft 315 kts 68°
2026-05-06 16:52 56.24555 90.47633 17509 ft 313 kts 68°
2026-05-06 16:53 56.25279 90.51271 17200 ft 311 kts 69°
2026-05-06 16:53 56.26006 90.54929 16890 ft 309 kts 69°
2026-05-06 16:53 56.26689 90.58594 16579 ft 307 kts 72°
2026-05-06 16:53 56.27149 90.62326 16274 ft 306 kts 79°
2026-05-06 16:54 56.27367 90.66157 15882 ft 307 kts 85°
2026-05-06 16:54 56.27438 90.68713 15587 ft 309 kts 86°
2026-05-06 16:54 56.27484 90.70725 15375 ft 309 kts 86°
2026-05-06 16:54 56.27555 90.74077 15053 ft 308 kts 86°
2026-05-06 16:55 56.27635 90.77891 14708 ft 307 kts 86°
2026-05-06 16:55 56.27717 90.81737 14369 ft 305 kts 86°
2026-05-06 16:55 56.27800 90.85540 14038 ft 303 kts 86°
2026-05-06 16:55 56.27882 90.89317 13712 ft 301 kts 86°
2026-05-06 16:56 56.27964 90.93082 13387 ft 299 kts 86°
2026-05-06 16:56 56.28040 90.96770 13068 ft 297 kts 92°